W1NJC Weather Reports


time (UTC)temp
C
wind
direction
speed
KPH
gust
KPH
rain 1hr
cm
rain 24hr
cm
rain mn
cm
humidity
%
barometer
mb
20260507104504 8 301 0.0 11.3 0.00 1.09 0.56 94 1006.7
20260507103624 8 0 0.0 0.0 0.00 1.09 0.56 94 1006.4
20260507102703 8 0 0.0 0.0 0.03 1.09 0.56 95 1006.7
20260507101803 8 0 0.0 0.0 0.05 1.09 0.56 95 1006.9
20260507100903 8 0 0.0 0.0 0.10 1.09 0.56 95 1007.0
20260507100024 8 0 0.0 0.0 0.13 1.09 0.56 94 1006.6
20260507095403 8 0 0.0 0.0 0.15 1.09 0.56 94 1006.3
20260507094503 8 343 0.0 1.6 0.20 1.09 0.56 94 1006.6
20260507093603 8 327 0.0 6.4 0.25 1.09 0.56 94 1006.3
20260507092703 8 0 0.0 0.0 0.28 1.07 0.53 95 1006.1
20260507091803 8 305 0.0 6.4 0.30 1.04 0.51 94 1006.2
20260507090907 8 287 1.6 12.9 0.30 0.99 0.46 94 1006.3
20260507090024 9 331 1.6 9.7 0.28 0.97 0.43 94 1006.1
20260507085403 9 342 1.6 11.3 0.25 0.94 0.41 94 1006.1
20260507084524 9 0 0.0 0.0 0.25 0.89 0.36 94 1006.5
20260507083603 9 0 0.0 0.0 0.23 0.84 0.30 94 1006.4
20260507082703 9 0 0.0 0.0 0.18 0.79 0.25 93 1006.4
20260507081803 9 0 0.0 0.0 0.15 0.74 0.20 93 1006.6
20260507080903 9 0 0.0 0.0 0.10 0.69 0.15 93 1006.6
20260507080024 9 0 0.0 0.0 0.10 0.69 0.15 92 1006.4
20260507075403 9 0 0.0 0.0 0.10 0.69 0.15 92 1006.2
20260507074503 10 0 0.0 0.0 0.05 0.64 0.10 91 1006.7
20260507073603 10 299 0.0 8.0 0.03 0.61 0.08 91 1006.4
20260507072703 10 0 0.0 0.0 0.03 0.61 0.08 90 1006.4
20260507071803 10 305 1.6 12.9 0.00 0.58 0.05 90 1006.4
20260507070924 10 284 1.6 11.3 0.00 0.58 0.05 91 1005.9
20260507070005 10 0 0.0 0.0 0.00 0.58 0.05 91 1005.5
20260507065403 10 0 0.0 0.0 0.00 0.58 0.05 91 1005.3
20260507064503 10 0 0.0 0.0 0.00 0.58 0.05 92 1005.7
20260507063624 10 0 0.0 0.0 0.00 0.58 0.05 91 1005.6
20260507062704 11 0 0.0 0.0 0.00 0.58 0.05 91 1005.6
20260507061803 11 0 0.0 0.0 0.00 0.58 0.05 91 1005.9
20260507060903 11 290 1.6 9.7 0.00 0.58 0.05 91 1005.8
20260507060003 11 292 0.0 11.3 0.00 0.58 0.05 93 1005.7
20260507055403 11 308 0.0 8.0 0.00 0.58 0.05 93 1005.7
20260507054524 11 305 1.6 14.5 0.00 0.58 0.05 93 1005.7
20260507053624 12 288 1.6 11.3 0.00 0.58 0.05 93 1005.9
20260507052703 12 301 1.6 9.7 0.00 0.58 0.05 93 1005.9
20260507051803 12 287 0.0 4.8 0.00 0.58 0.05 93 1006.1
20260507050903 12 260 1.6 12.9 0.03 0.58 0.05 93 1006.0
20260507050024 12 0 0.0 0.0 0.05 0.58 0.05 93 1006.0
20260507045403 13 8 0.0 4.8 0.05 0.58 0.05 94 1005.5
20260507044503 13 337 0.0 6.4 0.10 0.58 0.05 94 1005.8
20260507043603 13 309 1.6 11.3 0.15 0.58 0.05 94 1005.6
20260507042703 13 289 0.0 6.4 0.15 0.58 0.05 94 1005.8
20260507041803 13 280 1.6 9.7 0.15 0.58 0.05 94 1005.8
20260507040903 13 293 0.0 9.7 0.13 0.56 0.03 94 1005.5
20260507040004 13 279 0.0 8.0 0.10 0.53 0.00 94 1005.9
20260507035403 13 233 0.0 11.3 0.10 0.53 0.53 94 1005.8
20260507034503 14 239 0.0 11.3 0.05 0.48 0.48 94 1005.8
20260507033603 14 253 1.6 9.7 0.00 0.43 0.43 94 1005.8
20260507032724 14 247 1.6 11.3 0.00 0.43 0.43 94 1005.8
20260507031824 14 238 3.2 16.1 0.00 0.43 0.43 95 1005.6
20260507030903 14 252 3.2 20.9 0.00 0.43 0.43 95 1005.4
20260507030003 14 218 3.2 14.5 0.00 0.43 0.43 95 1005.2
20260507025424 14 226 4.8 17.7 0.00 0.43 0.43 95 1005.2
20260507024503 14 243 3.2 16.1 0.00 0.43 0.43 95 1005.3
20260507023603 14 259 1.6 17.7 0.03 0.43 0.43 95 1005.1
20260507022703 14 233 3.2 16.1 0.03 0.43 0.43 95 1005.1
20260507021803 14 225 3.2 12.9 0.03 0.43 0.43 95 1005.0
20260507020924 14 216 3.2 17.7 0.03 0.43 0.43 95 1005.1
20260507020003 14 177 3.2 12.9 0.03 0.43 0.43 95 1005.2
20260507015403 14 183 3.2 12.9 0.03 0.43 0.43 95 1005.2
20260507014503 14 202 3.2 14.5 0.03 0.43 0.43 95 1005.2
20260507013603 14 222 3.2 12.9 0.00 0.41 0.41 95 1005.2
20260507012703 14 168 4.8 14.5 0.00 0.41 0.41 95 1005.0
20260507011825 14 157 1.6 12.9 0.00 0.41 0.41 95 1005.2
20260507010905 13 222 3.2 12.9 0.00 0.41 0.41 95 1005.4
20260507010004 13 224 1.6 14.5 0.00 0.41 0.41 95 1005.4
20260507005403 13 207 3.2 14.5 0.00 0.41 0.41 95 1005.5
20260507004503 13 256 3.2 12.9 0.00 0.41 0.41 95 1005.5
20260507003603 13 192 6.4 16.1 0.00 0.41 0.41 95 1005.5
20260507002703 13 181 4.8 16.1 0.00 0.41 0.41 95 1005.5
20260507001803 13 213 4.8 16.1 0.03 0.41 0.41 94 1005.5
20260507000903 14 211 3.2 19.3 0.08 0.41 0.41 94 1005.3
20260507000003 14 161 3.2 14.5 0.08 0.41 0.41 94 1005.2
20260506235424 14 163 1.6 14.5 0.08 0.41 0.41 94 1005.2
20260506234503 14 150 1.6 9.7 0.10 0.41 0.41 94 1005.1
20260506233624 14 213 1.6 11.3 0.13 0.41 0.41 94 1005.2
20260506232724 14 179 1.6 9.7 0.13 0.41 0.41 94 1005.1
20260506231803 14 222 3.2 14.5 0.10 0.38 0.38 94 1005.2
20260506230903 14 225 1.6 17.7 0.05 0.33 0.33 94 1005.1
20260506230003 14 168 1.6 9.7 0.05 0.33 0.33 94 1005.0
20260506225403 14 216 3.2 12.9 0.05 0.33 0.33 93 1005.1
20260506224503 14 209 3.2 16.1 0.03 0.30 0.30 93 1005.2
20260506223603 14 219 3.2 16.1 0.00 0.28 0.28 93 1005.0
20260506222703 14 212 1.6 17.7 0.00 0.28 0.28 93 1005.2
20260506221824 14 222 3.2 17.7 0.03 0.28 0.28 93 1005.1
20260506220924 14 201 1.6 14.5 0.03 0.28 0.28 93 1005.2
20260506220024 15 164 1.6 12.9 0.05 0.28 0.28 93 1005.3
20260506215424 15 193 1.6 12.9 0.05 0.28 0.28 93 1005.4
20260506213603 15 208 3.2 17.7 0.05 0.28 0.28 93 1005.4
20260506212703 15 197 3.2 17.7 0.08 0.28 0.28 93 1005.4
20260506211803 15 171 4.8 14.5 0.08 0.25 0.25 93 1005.7
20260506210903 15 189 4.8 14.5 0.08 0.25 0.25 93 1005.8
20260506210024 15 168 4.8 17.7 0.05 0.23 0.23 93 1005.8
20260506205403 15 178 4.8 17.7 0.05 0.23 0.23 92 1005.8
20260506204503 15 197 4.8 19.3 0.05 0.23 0.23 93 1005.9
20260506203603 15 180 3.2 19.3 0.05 0.23 0.23 92 1005.8
20260506202703 15 159 4.8 16.1 0.05 0.20 0.20 92 1005.9
20260506201803 15 177 4.8 29.0 0.03 0.18 0.18 92 1006.0
20260506200903 15 227 3.2 22.5 0.05 0.18 0.18 91 1006.1
20260506200004 15 192 8.0 19.3 0.08 0.18 0.18 90 1006.2
20260506195403 15 185 6.4 19.3 0.10 0.18 0.18 90 1006.3
20260506194503 15 171 4.8 16.1 0.13 0.18 0.18 90 1006.2
20260506193603 15 212 4.8 17.7 0.15 0.18 0.18 91 1006.3
20260506192703 15 190 3.2 14.5 0.13 0.15 0.15 91 1006.3
20260506191824 15 188 4.8 17.7 0.15 0.15 0.15 89 1006.3
20260506190903 15 191 4.8 17.7 0.13 0.13 0.13 88 1006.4
20260506190003 16 190 3.2 17.7 0.10 0.10 0.10 87 1006.6
20260506185403 16 190 3.2 17.7 0.08 0.08 0.08 86 1006.5
20260506184503 17 188 1.6 12.9 0.05 0.05 0.05 85 1006.6
20260506183624 17 188 4.8 17.7 0.03 0.03 0.03 82 1006.8
20260506182703 17 159 4.8 17.7 0.03 0.03 0.03 79 1006.8
20260506181803 18 182 3.2 14.5 0.00 0.00 0.00 78 1006.9
20260506180903 18 191 4.8 17.7 0.00 0.00 0.00 75 1007.0
20260506180004 18 174 4.8 24.1 0.00 0.00 0.00 71 1007.0
20260506175403 19 186 8.0 24.1 0.00 0.00 0.00 71 1007.0
20260506174503 20 182 9.7 20.9 0.00 0.00 0.00 68 1007.2
20260506173603 20 179 12.9 27.4 0.00 0.00 0.00 65 1007.2
20260506172703 21 226 9.7 25.7 0.00 0.00 0.00 63 1007.0
20260506171824 21 181 12.9 40.2 0.00 0.00 0.00 62 1007.0
20260506170903 21 175 11.3 29.0 0.00 0.00 0.00 62 1007.2
20260506170004 21 188 9.7 38.6 0.00 0.00 0.00 61 1007.0
20260506165403 21 182 9.7 38.6 0.00 0.00 0.00 62 1007.1
20260506164503 21 171 12.9 33.8 0.00 0.00 0.00 61 1007.2
20260506163603 21 165 9.7 20.9 0.00 0.00 0.00 63 1007.2
20260506162703 21 176 12.9 30.6 0.00 0.00 0.00 63 1007.5
20260506161824 21 200 8.0 30.6 0.00 0.00 0.00 61 1007.6
20260506160924 21 207 6.4 25.7 0.00 0.00 0.00 62 1007.6
20260506160003 21 206 9.7 32.2 0.00 0.00 0.00 62 1007.8
20260506155403 21 173 9.7 32.2 0.00 0.00 0.00 61 1007.7
20260506154503 21 182 8.0 29.0 0.00 0.00 0.00 62 1007.8
20260506153603 21 194 6.4 30.6 0.00 0.00 0.00 62 1007.9
20260506152703 21 186 6.4 22.5 0.00 0.00 0.00 64 1008.1
20260506151803 21 201 9.7 29.0 0.00 0.00 0.00 64 1008.1
20260506150924 20 201 11.3 30.6 0.00 0.00 0.00 65 1008.3
20260506150003 20 197 6.4 17.7 0.00 0.00 0.00 67 1008.4
20260506145403 20 195 9.7 27.4 0.00 0.00 0.00 68 1008.5
20260506144503 20 210 8.0 27.4 0.00 0.00 0.00 67 1008.5
20260506143603 20 167 6.4 22.5 0.00 0.00 0.00 67 1008.5
20260506142703 20 172 4.8 22.5 0.00 0.00 0.00 68 1008.5
20260506141803 20 186 6.4 22.5 0.00 0.00 0.00 69 1008.5
20260506140903 20 180 8.0 22.5 0.00 0.00 0.00 68 1008.4
20260506140024 19 184 9.7 29.0 0.00 0.00 0.00 70 1008.2
20260506135403 19 184 6.4 20.9 0.00 0.00 0.00 71 1008.4
20260506134503 18 174 8.0 33.8 0.00 0.00 0.00 73 1008.4
20260506133603 18 205 8.0 25.7 0.00 0.00 0.00 74 1008.3
20260506132703 17 192 8.0 19.3 0.00 0.00 0.00 75 1008.4
20260506131803 17 199 4.8 17.7 0.00 0.00 0.00 79 1008.9
20260506130903 17 202 8.0 27.4 0.00 0.00 0.00 79 1009.0
20260506130004 16 194 8.0 17.7 0.00 0.00 0.00 79 1009.2
20260506125424 16 208 8.0 17.7 0.00 0.00 0.00 79 1009.1
20260506124503 16 219 3.2 17.7 0.00 0.00 0.00 79 1008.9
20260506123603 16 204 6.4 22.5 0.00 0.00 0.00 81 1009.0
20260506122704 16 209 4.8 19.3 0.00 0.00 0.00 81 1009.0
20260506121803 16 200 6.4 19.3 0.00 0.00 0.00 81 1009.2
20260506120004 15 194 6.4 25.7 0.00 0.00 0.00 83 1009.0
20260506115403 15 178 8.0 29.0 0.00 0.00 0.00 83 1009.0
20260506114503 15 193 6.4 16.1 0.00 0.00 0.00 84 1009.2
20260506113603 15 205 8.0 22.5 0.00 0.00 0.00 84 1009.3
20260506112703 15 201 8.0 35.4 0.00 0.00 0.00 83 1009.5
20260506111803 15 228 4.8 22.5 0.00 0.00 0.00 84 1009.7
20260506110903 15 165 4.8 17.7 0.00 0.00 0.00 85 1009.4
20260506105403 14 189 3.2 12.9 0.00 0.00 0.00 86 1009.2